Location: Mentone
(34.5413°N, 85.5351°W)
Time: 17:09:22
(UTC-05:00)

ATLAS 5 CENTAUR R/B - Visible Passes

Search period start: 28 May 2015 00:00
Search period end: 07 June 2015 00:00
Orbit: 700 x 962 km, 63.4° (Epoch: 20 April)

Date Brightness Start Highest point End Pass type
(mag) Time Alt. Az. Time Alt. Az. Time Alt. Az.
28 May 2.2 02:20:15 64° NNE 02:20:15 64° NNE 02:24:44 10° NNE visible
28 May 4.2 04:02:38 10° WNW 04:05:06 13° NW 04:07:23 10° NNW visible
29 May 2.6 02:01:56 53° NE 02:01:56 53° NE 02:05:58 10° NNE visible
29 May 4.2 03:43:36 10° WNW 03:46:16 14° NW 03:48:49 10° N visible
30 May 2.9 01:43:34 45° NE 01:43:34 45° NE 01:47:13 10° NNE visible
30 May 4.1 03:25:07 11° WNW 03:27:28 14° NW 03:30:14 10° N visible
31 May 3.1 01:25:09 38° NE 01:25:09 38° NE 01:28:28 10° NE visible
31 May 4.1 03:06:42 13° WNW 03:08:38 15° NW 03:11:38 10° N visible
01 Jun 3.4 01:06:42 33° NE 01:06:42 33° NE 01:09:41 10° NE visible
01 Jun 4.0 02:48:14 14° WNW 02:49:49 16° NW 02:53:01 10° N visible
02 Jun 3.5 00:48:12 30° NE 00:48:12 30° NE 00:50:55 10° NE visible
02 Jun 4.0 02:29:44 16° WNW 02:31:00 17° NW 02:34:22 10° N visible
03 Jun 3.6 00:29:38 27° NE 00:29:38 27° NE 00:32:08 10° NE visible
03 Jun 4.0 02:11:10 17° WNW 02:12:11 18° NW 02:15:43 10° N visible
04 Jun 3.7 00:11:02 25° NE 00:11:02 25° NE 00:13:21 10° NE visible
04 Jun 4.0 01:52:33 18° NW 01:53:23 19° NW 01:57:04 10° N visible
04 Jun 3.7 23:52:21 24° NE 23:52:21 24° NE 23:54:33 10° NE visible
05 Jun 3.9 01:33:53 20° NW 01:34:34 20° NW 01:38:24 10° N visible
05 Jun 3.7 23:33:37 23° NE 23:33:37 23° NE 23:35:45 10° NE visible
06 Jun 3.9 01:15:08 21° NW 01:15:45 21° NW 01:19:44 10° N visible
06 Jun 3.6 23:14:47 23° NE 23:14:47 23° NE 23:16:57 10° NE visible
